When you browse on this site, cookies collect data to enhance your experience and personalize the content and advertising you see.
Visit our Privacy Policy to learn more. By continuing to use the site, you agree to this use of cookies and data.
  • In Latvia
  • List of Countries
  • For 7 days
  • Water Temperature
  • Satellite Maps
  • Weather Map
  • Weather Widgets
  • user-avatar
    Login

    Hourly Weather Legnano

    Today, 21 March, Thursday

    Time Temperature Precipitation Wind Pressure Humidity
    00:00 +9°C° 0 mm 1 mps 755 mmHg 53%
    01:00 +9°C° 0 mm 1 mps 755 mmHg 54%
    02:00 +8°C° 0 mm 1 mps 755 mmHg 56%
    03:00 +8°C° 0 mm 1 mps 755 mmHg 59%
    04:00 +7°C° 0 mm 1 mps 755 mmHg 61%
    05:00 +7°C° 0 mm 1 mps 755 mmHg 63%
    06:00 +7°C° 0 mm 1 mps 755 mmHg 64%
    07:00 +7°C° 0 mm 1 mps 755 mmHg 66%
    08:00 +8°C° 0 mm 1 mps 755 mmHg 59%
    09:00 +10°C° 0 mm 1 mps 754 mmHg 53%
    10:00 +11°C° 0 mm 1 mps 754 mmHg 46%
    11:00 +13°C° 0 mm 1 mps 754 mmHg 42%
    12:00 +14°C° 0 mm 1 mps 753 mmHg 39%
    13:00 +15°C° 0 mm 1 mps 753 mmHg 35%
    14:00 +16°C° 0 mm 1 mps 753 mmHg 33%
    15:00 +16°C° 0 mm 1 mps 753 mmHg 32%
    16:00 +18°C° 0 mm 1 mps 752 mmHg 31%
    17:00 +16°C° 0 mm 1 mps 753 mmHg 34%
    18:00 +15°C° 0 mm 1 mps 753 mmHg 37%
    19:00 +13°C° 0 mm 1 mps 753 mmHg 40%
    20:00 +13°C° 0 mm 1 mps 754 mmHg 43%
    21:00 +12°C° 0 mm 1 mps 754 mmHg 45%
    22:00 +10°C° 0 mm 0 mps 754 mmHg 47%
    23:00 +10°C° 0 mm 0 mps 754 mmHg 49%

    Tomorrow, 22 March, Friday

    Time Temperature Precipitation Wind Pressure Humidity
    00:00 +9°C° 0 mm 0 mps 754 mmHg 50%
    01:00 +9°C° 0 mm 0 mps 754 mmHg 51%
    02:00 +10°C° 0 mm 1 mps 754 mmHg 52%
    03:00 +9°C° 0 mm 1 mps 754 mmHg 53%
    04:00 +9°C° 0 mm 1 mps 754 mmHg 54%
    05:00 +9°C° 0 mm 1 mps 754 mmHg 53%
    06:00 +9°C° 0 mm 1 mps 754 mmHg 53%
    07:00 +9°C° 0 mm 1 mps 754 mmHg 53%
    08:00 +10°C° 0 mm 1 mps 753 mmHg 48%
    09:00 +11°C° 0 mm 0 mps 753 mmHg 43%
    10:00 +13°C° 0 mm 0 mps 752 mmHg 37%
    11:00 +15°C° 0 mm 0 mps 752 mmHg 34%
    12:00 +18°C° 0 mm 1 mps 752 mmHg 31%
    13:00 +19°C° 0 mm 1 mps 752 mmHg 27%
    14:00 +20°C° 0 mm 1 mps 752 mmHg 27%
    15:00 +20°C° 0 mm 1 mps 751 mmHg 26%
    16:00 +20°C° 0 mm 1 mps 751 mmHg 25%
    17:00 +19°C° 0 mm 1 mps 751 mmHg 29%
    18:00 +18°C° 0 mm 1 mps 751 mmHg 32%
    19:00 +16°C° 0 mm 1 mps 751 mmHg 36%
    20:00 +15°C° 0 mm 1 mps 751 mmHg 38%
    21:00 +14°C° 0 mm 1 mps 752 mmHg 41%
    22:00 +12°C° 0 mm 0 mps 752 mmHg 43%
    23:00 +13°C° 0 mm 1 mps 752 mmHg 45%

    Day after tomorrow, 23 March, Saturday

    Time Temperature Precipitation Wind Pressure Humidity
    00:00 +12°C° 0 mm 1 mps 752 mmHg 46%
    01:00 +12°C° 0 mm 1 mps 751 mmHg 48%
    02:00 +12°C° 0 mm 1 mps 751 mmHg 48%
    03:00 +11°C° 0 mm 1 mps 751 mmHg 49%
    04:00 +11°C° 0 mm 1 mps 751 mmHg 50%
    05:00 +11°C° 0 mm 1 mps 751 mmHg 50%
    06:00 +11°C° 0 mm 1 mps 751 mmHg 50%
    07:00 +10°C° 0 mm 1 mps 750 mmHg 50%
    08:00 +12°C° 0 mm 1 mps 750 mmHg 46%
    09:00 +13°C° 0 mm 0 mps 750 mmHg 41%
    10:00 +15°C° 0 mm 0 mps 750 mmHg 36%
    11:00 +16°C° 0 mm 0 mps 749 mmHg 33%
    12:00 +20°C° 0 mm 1 mps 749 mmHg 31%
    13:00 +21°C° 0 mm 1 mps 749 mmHg 28%
    14:00 +21°C° 0 mm 1 mps 749 mmHg 27%
    15:00 +22°C° 0 mm 1 mps 748 mmHg 26%
    16:00 +22°C° 0 mm 1 mps 748 mmHg 25%
    17:00 +21°C° 0 mm 1 mps 748 mmHg 29%
    18:00 +19°C° 0 mm 1 mps 748 mmHg 32%
    19:00 +18°C° 0 mm 1 mps 749 mmHg 35%
    20:00 +16°C° 0 mm 1 mps 749 mmHg 38%
    21:00 +16°C° 0 mm 1 mps 749 mmHg 40%
    22:00 +15°C° 0 mm 1 mps 750 mmHg 43%
    23:00 +14°C° 0 mm 1 mps 750 mmHg 45%

    24 March, Sunday

    Time Temperature Precipitation Wind Pressure Humidity
    00:00 +14°C° 0 mm 1 mps 750 mmHg 46%
    01:00 +13°C° 0 mm 1 mps 750 mmHg 48%
    02:00 +13°C° 0 mm 1 mps 749 mmHg 49%
    03:00 +13°C° 0 mm 1 mps 749 mmHg 50%
    04:00 +12°C° 0 mm 1 mps 749 mmHg 51%
    05:00 +12°C° 0 mm 1 mps 749 mmHg 51%
    06:00 +12°C° 0 mm 1 mps 749 mmHg 51%
    07:00 +12°C° 0 mm 1 mps 749 mmHg 51%
    08:00 +13°C° 0 mm 1 mps 749 mmHg 46%
    09:00 +14°C° 0 mm 0 mps 749 mmHg 41%
    10:00 +16°C° 0 mm 0 mps 749 mmHg 35%
    11:00 +20°C° 0 mm 1 mps 748 mmHg 33%
    12:00 +21°C° 0 mm 1 mps 748 mmHg 30%
    13:00 +22°C° 0 mm 1 mps 748 mmHg 27%
    14:00 +22°C° 0 mm 1 mps 747 mmHg 27%
    15:00 +22°C° 0 mm 1 mps 747 mmHg 26%
    16:00 +23°C° 0 mm 1 mps 746 mmHg 26%
    17:00 +21°C° 0 mm 1 mps 746 mmHg 29%
    18:00 +20°C° 0 mm 1 mps 746 mmHg 33%
    19:00 +19°C° 0 mm 1 mps 746 mmHg 36%
    20:00 +18°C° 0 mm 1 mps 747 mmHg 39%
    21:00 +16°C° 0 mm 1 mps 747 mmHg 42%
    22:00 +16°C° 0 mm 1 mps 747 mmHg 44%
    23:00 +15°C° 0 mm 1 mps 747 mmHg 46%

    25 March, Monday

    Time Temperature Precipitation Wind Pressure Humidity
    00:00 +14°C° 0 mm 1 mps 747 mmHg 48%
    01:00 +13°C° 0 mm 0 mps 747 mmHg 50%
    02:00 +12°C° 0 mm 0 mps 747 mmHg 51%
    03:00 +12°C° 0 mm 0 mps 746 mmHg 53%
    04:00 +11°C° 0 mm 0 mps 746 mmHg 54%
    05:00 +12°C° 0 mm 1 mps 746 mmHg 56%
    06:00 +12°C° 0 mm 1 mps 746 mmHg 57%
    07:00 +12°C° 0 mm 1 mps 746 mmHg 58%
    08:00 +14°C° 0 mm 1 mps 746 mmHg 53%
    09:00 +15°C° 0 mm 1 mps 746 mmHg 47%
    10:00 +18°C° 0 mm 1 mps 746 mmHg 42%
    11:00 +19°C° 0 mm 1 mps 745 mmHg 38%
    12:00 +21°C° 0 mm 1 mps 745 mmHg 35%
    13:00 +22°C° 0 mm 1 mps 745 mmHg 31%
    14:00 +21°C° 0 mm 2 mps 745 mmHg 30%
    15:00 +23°C° 0 mm 2 mps 744 mmHg 29%
    16:00 +23°C° 0 mm 2 mps 744 mmHg 28%
    17:00 +21°C° 0 mm 2 mps 744 mmHg 32%
    18:00 +20°C° 0 mm 2 mps 744 mmHg 37%
    19:00 +18°C° 0 mm 2 mps 744 mmHg 41%
    20:00 +17°C° 0 mm 2 mps 745 mmHg 43%
    21:00 +16°C° 0 mm 2 mps 745 mmHg 44%
    22:00 +16°C° 0 mm 2 mps 746 mmHg 46%
    23:00 +15°C° 0 mm 2 mps 746 mmHg 45%

    26 March, Tuesday

    Time Temperature Precipitation Wind Pressure Humidity
    00:00 +14°C° 0 mm 2 mps 746 mmHg 44%
    01:00 +14°C° 0 mm 2 mps 746 mmHg 43%
    02:00 +13°C° 0 mm 2 mps 745 mmHg 43%
    03:00 +13°C° 0 mm 2 mps 745 mmHg 43%
    04:00 +12°C° 0 mm 2 mps 745 mmHg 43%
    05:00 +11°C° 0 mm 3 mps 745 mmHg 42%
    06:00 +11°C° 0 mm 3 mps 745 mmHg 40%
    07:00 +10°C° 0 mm 3 mps 745 mmHg 39%
    08:00 +13°C° 0 mm 2 mps 745 mmHg 34%
    09:00 +15°C° 0 mm 2 mps 745 mmHg 29%
    10:00 +16°C° 0 mm 2 mps 745 mmHg 25%
    11:00 +18°C° 0 mm 2 mps 745 mmHg 22%
    12:00 +19°C° 0 mm 2 mps 744 mmHg 19%
    13:00 +21°C° 0 mm 2 mps 744 mmHg 16%
    14:00 +21°C° 0 mm 2 mps 744 mmHg 15%
    15:00 +21°C° 0 mm 2 mps 744 mmHg 13%
    16:00 +22°C° 0 mm 3 mps 744 mmHg 12%
    17:00 +20°C° 0 mm 3 mps 745 mmHg 15%
    18:00 +19°C° 0 mm 3 mps 746 mmHg 18%
    19:00 +17°C° 0 mm 4 mps 747 mmHg 21%
    20:00 +15°C° 0 mm 4 mps 748 mmHg 30%
    21:00 +13°C° 0 mm 4 mps 749 mmHg 38%
    22:00 +12°C° 0 mm 4 mps 750 mmHg 47%
    23:00 +11°C° 0 mm 4 mps 750 mmHg 47%
    Show more